星链-35697(STARLINK-35697)

导读

STARLINK-35697是美国SpaceX星链星座中的一颗卫星,于2025年11月19日发射升空。星链项目旨在构建全球卫星互联网星座,为全球用户提供低延迟、高速率的宽带互联网服务。该卫星继承星链技术路线,加入低轨星座网络,进一步补充星链全球覆盖能力,推动太空互联网基础设施建设。

基本信息
目录编号:
66539
目录名称:
STARLINK-35697
国际标识:
2025-265Z
轨道中心:
EARTH
卫星名称:
星链-35697
卫星全名:
星链-35697(STARLINK-35697)
卫星状态:
在轨 (已飞行290 天)
发射日期:
2025-11-19 UTC
国别 :
美国 (US)
星等 :
--
轨道信息
数据来源 国际轨道数据
星历时间: 2026-09-05T15:10:48+0800
12小时前
查看轨道信息
半长轴: 6861.183km
偏心率: 0.0001369
轨道倾角: 43.002°
近地点辐角 166.724°
升交点赤经 343.481°
平近点角 193.365°
近地点: 482.106km
远地点: 483.986km
周期: 94.267分钟
每日圈数: 15.275812
详细信息
固有亮度:
5
最大亮度:
2.5
卫星平台:
Starlink V1.0
覆盖范围:
全球
运营商:
太空探索技术公司
运营商所在国:
美国
制造商(研发单位):
太空探索技术公司
制造商所在国:
美国
使用方式:
暂无
卫星简介
Starlink 计划是 SpaceX 推出的全球卫星互联网项目,通过发射低轨道卫星,为全球尤其是偏远地区提供高速、低延迟的互联网服务。自 2019 年起,Starlink 已部署数千颗卫星,旨在缩小全球数字鸿沟,推动互联网普及。该项目还为军事、航空等行业提供通信支持,带来广泛经济效益。
2D轨道图
3D轨道图
轨道高度分析图
轨道倾角分析图
轨道综合分析图
查看轨道综合分析图
交会数据列表
事件ID 空间交会对象 最接近时刻(TCA) 交会距离 交会风险概率(CRP) 交会风险指数(CRI) 操作
CDM_260908-082105-642806-653921
2026-09-08T
08:21:58+0000
0.308 km
远距离
3.700004E-4 高风险 0.86
CDM_260908-064705-642806-653921
2026-09-08T
06:47:49+0000
1.749 km
极远距离
2.74511E-6 低风险 0.44
CDM_260907-055104-734706-653921
2026-09-07T
05:51:52+0000
2.529 km
极远距离
1.434736E-6 低风险 0.38